STARLINK-31363, 59782

Orbit data source: Space-Track

STARLINK-31363, 59782 is a payload satellite owned by SpaceX/Seattle (US) in LEO that was launched on Sat, 18 May 2024 UTC via an FALCON 9 launch vehicle from the Air Force Eastern Test Range (AFETR). Payload-class satellites include a variety of spacecraft equipped with specific instruments for various scientific and technological missions. These include communications satellites like Starlink; space stations such as the ISS; scientific satellites like the Hubble; Earth observation satellites from companies like Planet Labs, Umbra, and HawkEye 360; GPS; miniature CubeSats for education and research; and military/defense satellites.

Loading next visibility...
Identifier
59782, 2024-093A
Orbit
LEO
Country
Flag of USUS
Related business
Manufacturer
SpaceX/Seattle
Mission
Operational Commercial Communications
Bus & Motor
STARLINK V2M, Unknown motor
Mass
730 kg wet, ~700 kg dry
Launch date (UTC)
2024-05-18 (2 years ago)
Launch vehicle
FALCON 9
Launch site
Air Force Eastern Test Range (AFETR)
Object type
Payload
Rocket body
Debris
Shape & HBR
Box + 2 Pan, 17.7 m
Radar Cross Section
33.884 m², Large (>1 m²)

Expand to show TLE details & history
Last TLE update: 16 hours ago

TLE from 16 hours ago
0 STARLINK-31363
1 59782U 24093A   26126.63314080  .00000065  00000-0  11909-4 0  9996
2 59782  42.9982 238.4529 0001617 179.9719 180.1133 15.27571033111596
Epoch: 2026-05-06T15:11Z
TLE epoch observation values (Epoch: 2026-05-06T15:11:43.365Z)
Latitude
Longitude
146.03138°
Altitude
483.96 km
Speed
7.625 km/s
True Right ascension
15h 53m 48s
True Declination
0° 00' 00"
Sunlit
Object was in full shadow at epoch
Visualization orbit readout
Latitude
Unknown
Longitude
Unknown
Altitude
Unknown
Speed
Unknown
Apparent Right ascension
Unknown
Apparent Declination
Unknown
Sunlit
N/A
Visualization observer readout
Local Sidereal Time
15:35:14
Azimuth
Unknown
Elevation
Unknown
Doppler factor
Unknown
Orbital elements
Apogee altitude
486.131 km
Perigee altitude
483.912 km
Semi-major axis
6,863.158 km
Eccentricity
0.00016
Inclination
42.9982°
RAAN
238.4529°
Arg. of periapsis
179.9719°
True anomaly
180.11326°
Mean anomaly
180.1133°
Eccentric anomaly
180.11328°
Mean motion
3.81731 °/min
Orbital period
94.31 mins
BSTAR
0.000011909
Loading maneuver chart data...
Computing Atmospheric mass density...
Loading historical data...
Loading historical data...
Loading historical data...
Loading historical data...
Loading historical data...
Loading historical data...
Loading historical data...

Documentation

Showing up to 5 results
|